Location: Powell Observatory
(38.6461°N, 94.6997°W)
Time: 16:37:34
(UTC-06:00)

Hubble Space Telescope - Visible Passes

Search period start: 01 December 2021 00:00
Search period end: 11 December 2021 00:00
Orbit: 534 x 538 km, 28.5° (Epoch: 01 December)

Date Brightness Start Highest point End Pass type
(mag) Time Alt. Az. Time Alt. Az. Time Alt. Az.
01 Dec 3.8 04:25:24 11° SE 04:25:24 11° SE 04:25:42 10° SE visible
01 Dec 3.1 06:00:59 10° SW 06:03:11 14° SSW 06:05:23 10° SSE visible
02 Dec 3.1 05:50:14 10° SW 05:51:55 12° SSW 05:53:39 10° S visible
03 Dec 3.2 05:39:46 10° SSW 05:40:38 11° SSW 05:41:31 10° S visible
